Location: Fefry
(48.9766°N, 13.9889°E)
Time: 00:15:22
(UTC+00:00)

Daily predictions for brighter satellites

Satellite Brightness Start Highest point End
(mag) Time Altitude Azimuth Time Altitude Azimuth Time Altitude Azimuth
Cosmos 2082 Rocket 4.5 02:10:56 20° ENE 02:10:56 20° ENE 02:13:29 10° E
Cosmos 2278 Rocket 4.0 02:31:43 27° E 02:31:43 27° E 02:36:10 10° NE
USA 215 4.0 02:26:01 10° ESE 02:30:29 46° E 02:30:29 46° E
Cosmos 1833 Rocket 4.4 02:52:14 24° SE 02:52:14 24° SE 02:54:26 10° SE
Cosmos 1464 Rocket 4.1 03:25:48 10° N 03:32:11 76° E 03:38:26 10° SSE
COSMO-SKYMED 1 3.8 03:31:54 10° SE 03:35:56 39° ENE 03:37:26 29° NNE
Gbstr 26 Del rocket 3.7 03:45:48 45° E 03:45:48 45° E 03:48:48 10° ESE
H-2A R/B 4.3 03:41:39 10° NNE 03:45:03 34° E 03:48:27 10° SSE
COSMOS 2406 3.5 03:52:21 49° SSW 03:52:21 49° SSW 03:56:52 10° S
Cosmos 2082 Rocket 2.0 03:52:50 61° NW 03:53:52 83° WSW 03:59:28 10° SSE
Cosmos 2344 3.9 03:48:26 10° SSW 03:55:47 63° SE 04:03:26 10° NE
COSMOS 2455 3.3 03:57:05 43° SW 03:57:05 43° SW 04:01:59 10° S
Landsat 5 4.4 03:52:41 10° SE 03:57:03 52° ENE 04:00:18 18° N
Cosmos 1891 Rocket 4.5 03:51:33 14° NNW 03:57:09 65° W 04:03:32 10° S
Cosmos 1842 Rocket 4.1 03:58:55 46° S 03:58:55 46° S 04:02:05 10° S
SL-24 R/B 4.3 03:53:40 10° NNE 03:59:02 86° WNW 04:02:33 19° SSW
Cosmos 1850 Rocket 4.1 03:54:58 15° SSW 03:59:22 79° ESE 04:04:45 10° NNE
METEOR-M 4.5 04:00:35 10° N 04:04:50 45° NW 04:04:50 45° NW
MOS 1-B Rocket 3.9 04:03:52 10° S 04:10:34 76° WSW 04:16:29 10° NNW
Cosmos 2034 Rocket 3.8 04:07:27 10° NNW 04:13:40 78° W 04:19:54 10° S
Cosmos 1900 4.3 04:13:44 55° W 04:14:27 63° WSW 04:19:25 10° SSE
Cosmos 2278 Rocket 2.2 04:13:39 43° WSW 04:15:14 58° WNW 04:20:51 10° NNE
USA 215 3.5 04:09:28 10° SSE 04:15:44 48° SW 04:17:51 36° W
Cosmos 1782 3.9 04:12:57 10° N 04:16:44 45° ENE 04:20:31 10° SSE
Cosmos 1943 Rocket 3.4 04:14:19 10° S 04:19:38 43° ESE 04:24:59 10° NE
CZ-2C R/B 2.6 04:14:57 10° SSE 04:20:30 82° WSW 04:26:00 10° NNW
BREEZE M DEB (TANK) 2.8 04:21:18 44° WSW 04:22:40 87° S 04:25:19 10° E
SKYMED 2 3.4 04:19:34 10° S 04:23:54 72° WSW 04:26:01 30° NNW
Cosmos 1816 Rocket 4.4 04:18:05 10° S 04:24:17 86° W 04:30:35 10° N
Cosmos 540 Rocket 3.7 04:25:25 42° W 04:26:00 43° WSW 04:30:50 10° S
Cosmos 2221 4.3 04:32:05 18° SW 04:32:05 18° SW 04:33:26 10° SSW
Cosmos 1933 3.2 04:27:43 22° NNW 04:30:16 85° W 04:34:16 10° S
ADEOS 4.3 04:25:17 10° NNE 04:30:27 56° ESE 04:35:34 10° S
Cosmos 1833 Rocket 4.2 04:34:00 19° SW 04:34:00 19° SW 04:36:23 10° SSW
Cosmos 1741 Rocket 4.0 04:30:10 10° SW 04:35:19 58° WNW 04:40:30 10° NNE
CZ-4B R/B 4.0 04:31:36 10° NNE 04:35:58 83° WNW 04:40:25 10° SSW
SL-8 R/B 3.7 04:35:05 33° WSW 04:37:13 78° S 04:42:00 10° E
Tsikada Rocket 3.9 04:31:05 10° S 04:37:17 87° W 04:43:35 10° N
Meteor 1-31 Rocket 2.6 04:33:38 10° NNE 04:37:31 80° WNW 04:41:24 10° SSW
Cosmos 1634 Rocket 4.0 04:35:28 10° N 04:41:50 85° E 04:48:06 10° S
Cosmos 2151 2.8 04:38:30 10° SSW 04:42:47 76° W 04:47:07 10° N
Cosmos 1812 3.2 04:45:44 10° N 04:49:34 60° ENE 04:53:22 10° SSE
CZ-4C R/B 2.8 04:47:18 10° S 04:50:27 54° W 04:51:33 33° NW
Cosmos 841 Rocket 4.1 04:48:36 26° WNW 04:50:31 35° WSW 04:55:09 10° SSW
Cosmos 1939 Rocket 4.4 04:52:54 10° NNE 04:56:41 39° E 05:00:23 10° SSE
H-2A R/B 2.4 04:52:35 10° SSE 04:56:44 66° ENE 05:01:01 10° N
SJ-12 4.3 04:53:07 10° N 04:56:58 39° WNW 05:00:48 10° SW
Envisat 3.2 04:52:56 10° N 04:57:50 49° WNW 05:02:42 10° SW
Cosmos 2098 Rocket 3.3 04:55:04 10° S 04:58:25 59° E 05:02:33 10° NNE
Genesis I 3.8 04:57:08 17° NNW 05:00:11 58° NE 05:04:13 10° SE
Cosmos 1766 Rocket 4.4 04:57:14 10° S 05:01:27 52° E 05:05:41 10° NNE
Cosmos 1570 Rocket 4.2 05:01:27 14° NW 05:05:48 48° WSW 05:10:48 10° S
YAOGAN 6 3.6 05:02:59 10° N 05:06:05 26° WNW 05:09:09 10° SW
DMSP B5D1-3 4.5 05:02:03 10° S 05:07:11 76° WSW 05:12:23 10° NNW
Cosmos 1076 Rocket 4.3 05:04:13 10° SW 05:08:03 29° WNW 05:11:55 10° N
DMSP B5D2-2 4.0 05:04:29 10° S 05:09:43 72° WSW 05:14:57 10° NNW
Cosmos 2369 Rocket 3.2 05:05:28 10° S 05:10:49 49° ESE 05:16:12 10° NE
COSMO-SKYMED 1 3.6 05:08:40 10° SSW 05:12:13 25° W 05:14:38 16° NW
Aureole 1 Rocket 1.9 05:11:17 10° SSW 05:14:24 78° WNW 05:17:23 10° NNE
Cosmos 1867 3.7 05:10:50 15° NW 05:15:21 57° WSW 05:20:40 10° SSE
Cosmos 1241 Rocket 4.5 05:10:06 12° NW 05:15:44 65° WSW 05:21:51 10° SSE
FALCON 9 DEB 4.0 05:14:15 10° SW 05:16:57 39° SSE 05:19:41 10° ENE
APEX 3.3 05:16:51 22° WNW 05:17:58 31° WSW 05:20:37 10° S
Cosmos 921 Rocket 3.0 05:13:44 10° NNW 05:18:05 76° WSW 05:22:29 10° SSE
NOSS 3 (A) 4.3 05:19:04 27° NNW 05:19:04 27° NNW 05:20:29 10° NNE
H-2A R/B 3.9 05:16:10 10° NNW 05:18:59 21° WNW 05:21:49 10° WSW
Cosmos 2084 Rocket 3.1 05:15:27 10° SW 05:19:17 69° NW 05:23:11 10° NE
Cosmos 1328 Rocket 3.6 05:15:25 10° N 05:19:52 84° E 05:24:16 10° S
NOSS 3-2 (A) 3.4 05:14:45 10° SW 05:20:24 72° NW 05:27:04 10° NE
H-2A R/B 4.0 05:16:10 10° NNE 05:20:35 32° E 05:24:56 10° SSE
FALCON 9 DEB 3.5 05:20:01 10° SW 05:22:48 50° SSE 05:25:35 10° ENE
NOAA 12 4.1 05:18:21 10° NNE 05:23:40 88° ESE 05:28:56 10° SSW
NOSS 3-2 (C) 3.5 05:18:13 10° SSW 05:23:48 78° SE 05:30:21 10° NE
Meteor 1-10 Rocket 4.4 05:18:21 10° N 05:23:58 75° ENE 05:29:31 10° SSE
FALCON 9 DEB 4.5 05:23:23 10° SSW 05:26:03 33° SE 05:28:43 10° ENE
Cosmos 1151 Rocket 3.1 05:21:44 10° NNW 05:26:05 61° W 05:30:24 10° S
CENTAUR R/B 2.6 05:21:07 10° SW 05:27:05 80° NW 05:34:24 10° NE
Cosmos 968 Rocket 3.4 05:22:42 10° SSW 05:27:52 78° WNW 05:33:03 10° NNE
CZ-4B R/B 2.6 05:25:47 10° N 05:29:24 60° WNW 05:32:55 10° SSW
Meteor 2-6 Rocket 4.1 05:25:26 10° NNW 05:30:55 73° W 05:36:17 10° S
Gbstr 26 Del rocket 3.9 05:28:19 13° W 05:31:20 34° SW 05:35:20 10° SSE
Meteor 2-3 Rocket 4.2 05:26:58 10° SW 05:32:13 39° WNW 05:37:35 10° N
Cosmos 2227 Rocket 4.4 05:33:05 10° N 05:35:51 14° NNE 05:38:37 10° ENE
Cosmos 2082 Rocket 3.8 05:34:44 11° WNW 05:37:02 14° W 05:39:52 10° SW
Meteor PRIRODA 4.0 05:36:46 10° N 05:40:10 39° WNW 05:43:33 10° SW
CZ-4B R/B 1.3 05:37:57 10° S 05:41:20 76° WSW 05:44:41 10° NNW
Cosmos 1408 Rocket 4.0 05:38:25 10° S 05:42:42 66° E 05:46:59 10° NNE
Cosmos 2297 3.9 05:37:40 10° SW 05:43:16 51° NW 05:48:52 10° NNE
USA 238 DEB 3.6 05:45:43 10° SW 05:52:13 71° NW 05:59:10 10° NE
USA 238 3.6 05:45:49 10° SW 05:52:19 71° NW 05:59:16 10° NE
Cosmos 1782 4.3 05:50:03 10° NW 05:52:40 17° W 05:55:15 10° SW
Cosmos 1515 Rocket 3.5 05:48:23 10° NNW 05:52:49 82° WSW 05:57:10 10° S
CZ-2C R/B 3.3 05:51:34 10° N 05:56:02 41° WNW 06:00:35 10° SW
Cosmos 1862 3.7 05:53:49 10° SSW 05:57:34 42° WNW 06:01:21 10° N
Okean O Rocket 3.3 05:53:32 10° NNE 05:57:44 39° E 06:01:52 10° SSE
Cosmos 1503 Rocket 4.4 05:52:58 10° SSW 05:58:11 73° ESE 06:03:30 10° NNE
NOAA 6 4.0 05:53:35 10° N 05:58:42 72° WNW 06:03:46 10° SSW
Cosmos 2278 Rocket 3.8 05:57:13 10° WNW 06:00:36 16° NNW 06:04:01 10° N
